Retour au catalogue

COSMOS 970 DEB

ActifLEO
NORAD 64986·DEBRIS·🇷🇺 Russia

Lancé Dec 21, 1977 depuis Baikonur Cosmodrome

Loading…

Prochains Passages (prochaines 24 heures)

TLE

FraisSource: Space-Track

Époque: Sep 13, 2026, 09:47 UTC

1 64986U 77121CX  26256.40771100  .00000195  00000-0  30225-3 0  9992
2 64986  65.7752 246.6934 0099238   0.8200  73.1058 13.69881542628649

Suivez COSMOS 970 DEB en temps réel avec AllMySat

Download on the App Store